Regional Weather Roundup
Issued by NWS

Home | Current Version | Previous Version | Graphics & Text | Print | Product List | Glossary On
Versions: 1 2 3 4 5 6 7 8 9 10 11 12 13 14 15 16 17 18 19 20 21 22 23 24 25 26 27 28 29 30 31 32 33 34 35 36 37 38 39 40 41 42 43 44 45 46 47 48 49 50
000
ASUS45 KBOU 010407
RWRCO

WEATHER ROUNDUP FOR COLORADO
NATIONAL WEATHER SERVICE DENVER/BOULDER CO
1000 PM MDT SUN AUG 31 2014

NOTE: "FAIR" INDICATES FEW OR NO CLOUDS BELOW 12000 FEET WITH NO
SIGNIFICANT WEATHER AND/OR OBSTRUCTIONS TO VISIBILITY.

COZ001>005-013-030-031-010500-
...NORTHWEST COLORADO...

CITY           SKY/WX    TMP DP  RH WIND       PRES   REMARKS
CRAIG          MOCLDY    57  41  55 VRB5      30.08R
HAYDEN         MOCLDY    55  39  54 W6        30.10R
MEEKER         CLEAR     59  44  57 CALM      30.10R
MOUNT WERNER   NOT AVBL
STEAMBOAT SPGS PTCLDY    54  46  75 CALM      30.11R
WALDEN         PTCLDY    50  34  53 CALM      30.16S
$$

COZ006>008-011-010500-
...WEST CENTRAL VALLEYS...

CITY           SKY/WX    TMP DP  RH WIND       PRES   REMARKS
GRAND JUNCTION CLEAR     69  34  27 W12       29.95R
MONTROSE       CLEAR     62  42  47 SE6       30.03R
EAGLE          PTCLDY    63  45  51 CALM      30.09R
RIFLE          CLEAR     68  36  30 NW9       30.01R
DELTA          CLEAR     79  29  16 W7        29.95
NUCLA          CLEAR     72  30  21 NW5       30.06R
$$

COZ017>023-064>068-010500-
...SOUTHWEST COLORADO...

CITY           SKY/WX    TMP DP  RH WIND       PRES   REMARKS
DURANGO        CLEAR     69  34  27 NW3       30.09R
CORTEZ         CLEAR     63  40  42 E7        30.03R
PAGOSA SPRINGS CLEAR     59  32  36 NW6       30.17S
TELLURIDE      NOT AVBL
WOLF CREEK PAS CLEAR     48  30  49 SW28G40   30.45S
$$

COZ009-010-012-014-032>034-037-058>063-010500-
...CENTRAL COLORADO...

CITY           SKY/WX    TMP DP  RH WIND       PRES   REMARKS
ASPEN          PTCLDY    52  40  63 S7        30.14R
BUENA VISTA    PTCLDY    52  36  53 CALM      30.13S
COPPER MTN     PTCLDY    46  32  57 W14       30.41R
BERTHOUD PASS  FOG       36  34  93 NW14      30.44R VSB 1/2
COTTONWOOD PAS PTCLDY    61  27  27 NW5       30.26S
GUNNISON       PTCLDY    55  37  50 NE5       30.16R
KREMMLING      CLOUDY    54  41  62 CALM      30.15R
LEADVILLE      PTCLDY    47  29  49 NE8       30.25S
MONARCH PASS   CLOUDY    46  30  53 W24       30.52R
SALIDA         PTCLDY    64  33  32 CALM      30.17S
SUNLIGHT       CLEAR     48  36  61 CALM      30.35S
WILKERSON PASS NOT AVBL
$$

COZ069>075-010500-
...SAN LUIS VALLEY/SANGRE DE CRISTO MOUNTAINS...

CITY           SKY/WX    TMP DP  RH WIND       PRES   REMARKS
ALAMOSA        CLEAR     58  33  39 S9        30.13R
LA VETA PASS   NOT AVBL
SAGUACHE       NOT AVBL
$$

COZ035-036-038>040-010500-
...NORTHERN COLORADO FRONT RANGE...

CITY           SKY/WX    TMP DP  RH WIND       PRES   REMARKS
DENVER INTL AP PTCLDY    60  49  66 E7        29.99R
DMNS CITY PARK   N/A     57  56  95 W2        29.98S
AURORA         PTCLDY    56  49  77 E7        30.01R
FRONT RANGE AP PTCLDY    59  52  77 SE8       30.00
ERIE MUNI ARPT PTCLDY    57  54  91 CALM      29.98R
BOULDER MUN AP PTCLDY    59  55  88 CALM      29.98S
CENTENNIAL     PTCLDY    60  48  64 SW3       30.01R
BROOMFIELD     PTCLDY    63  52  67 CALM      30.00R
FORT COLLINS   PTCLDY    61  52  72 S3        29.98R
LONGMONT       PTCLDY    60  56  87 CALM      30.00R
$$

COZ041-046-047-076>085-087-088-010500-
...PIKES PEAK/PALMER DIVIDE AND SOUTHERN FOOTHILLS...

CITY           SKY/WX    TMP DP  RH WIND       PRES   REMARKS
COLO. SPRINGS  CLEAR     65  47  52 SE5       30.04R
A. F. ACADEMY  CLEAR     59  48  66 VRB1      30.05R
ELLICOTT       CLEAR     60  49  66 E9        30.01R
FALCON         CLEAR     57  48  72 N6        30.08S
FORT CARSON    PTCLDY    64  49  58 S7        30.02R
LIMON          CLEAR     54  48  80 NW6       29.99R
MONUMENT HILL  CLEAR     50  45  81 S6        30.08R
TRINIDAD       CLEAR     63  49  60 W6        29.99R
$$

COZ042>045-048>051-090-091-010500-
...NORTHEAST COLORADO...

CITY           SKY/WX    TMP DP  RH WIND       PRES   REMARKS
GREELEY ARPT   MOCLDY    61  48  63 CALM      29.97R
AKRON          MOCLDY    60  49  66 N12       29.96R
BURLINGTON     PTCLDY    60  54  80 N5        29.91R
WRAY           LGT RAIN  65  52  62 N21       29.88F
STERLING       MOCLDY    61  54  77 CALM      29.94S
HOLYOKE        PTCLDY    59  52  77 W6        29.92R
FORT MORGAN    MOCLDY    60  46  59 NE10      29.97R
$$

COZ086-089-092>099-010500-
...SOUTHEAST COLORADO...

CITY           SKY/WX    TMP DP  RH WIND       PRES   REMARKS
PUEBLO         PTCLDY    68  49  50 E3        29.95R
LA JUNTA       CLEAR     65  51  60 NE7       29.90R
LAMAR          CLEAR     64  52  64 NE6       29.85R
SPRINGFIELD      N/A     65  54  67 N8        29.89R
$$


USA.gov is the U.S. government's official web portal to all federal, state and local government web resources and services.